Location: Rounton
(54.4000°N, 1.3500°W)
Time: 01:16:38
(UTC+00:00)

Explorer 7 - Visible Passes

Search period start: 04 December 2023 00:00
Search period end: 14 December 2023 00:00
Orbit: 472 x 640 km, 50.3° (Epoch: 03 December)

Date Brightness Start Highest point End Pass type
(mag) Time Alt. Az. Time Alt. Az. Time Alt. Az.
04 Dec 8.2 16:40:12 10° SSW 16:43:12 24° SSE 16:46:12 10° E visible
04 Dec 7.2 18:19:04 10° WSW 18:22:31 43° S 18:22:31 43° S visible
05 Dec 8.1 16:36:22 10° SW 16:39:32 28° SSE 16:42:44 10° E visible
05 Dec 7.2 18:15:28 10° WSW 18:18:59 44° S 18:19:08 44° S visible
06 Dec 7.9 16:32:34 10° SW 16:35:53 32° SSE 16:39:13 10° E visible
06 Dec 7.2 18:11:51 10° WSW 18:15:22 44° S 18:15:44 42° SSE visible
07 Dec 7.7 16:28:49 10° SW 16:32:14 36° SSE 16:35:39 10° E visible
07 Dec 7.3 18:08:13 10° WSW 18:11:44 43° S 18:12:21 39° SSE visible
07 Dec 10.0 19:48:07 10° W 19:48:07 10° W 19:48:07 10° W visible
08 Dec 7.6 16:25:05 10° WSW 16:28:34 40° S 16:32:02 10° E visible
08 Dec 7.5 18:04:35 10° W 18:08:04 40° S 18:08:59 33° SSE visible
08 Dec 9.9 19:44:39 10° WSW 19:44:45 10° WSW 19:44:45 10° WSW visible
09 Dec 7.6 16:21:21 10° WSW 16:24:52 42° S 16:28:23 10° ESE visible
09 Dec 7.7 18:00:58 10° W 18:04:22 36° SSW 18:05:39 27° SSE visible
09 Dec 9.9 19:41:17 10° WSW 19:41:26 11° WSW 19:41:26 11° WSW visible
10 Dec 7.5 16:17:38 10° WSW 16:21:10 44° S 16:24:42 10° ESE visible
10 Dec 8.0 17:57:19 10° W 18:00:39 32° SSW 18:02:23 21° SSE visible
10 Dec 9.8 19:38:07 10° WSW 19:38:10 10° WSW 19:38:10 10° WSW visible
11 Dec 8.3 17:53:41 10° W 17:56:53 28° SSW 17:59:12 15° SSE visible
12 Dec 8.6 17:50:03 10° W 17:53:06 24° SSW 17:56:07 10° SSE visible
13 Dec 9.0 17:46:29 10° WSW 17:49:15 20° SSW 17:52:01 10° SSE visible
